{"data":{"norad_id":61761,"intl_designator":"2024-199AC","name":"2024-199AC","alt_names":[],"object_type":"PAYLOAD","status":"ACTIVE","operator":null,"country":"TBD","launch_date":"2024-11-04","launch_site_code":"VOSTO","launch_vehicle":null,"mission":null,"orbit_class":"UNKNOWN","rcs_meters":null,"size_class":null,"mass_kg":null,"dimensions":null,"purposes":[],"wikipedia_slug":null,"has_3d_model":false,"image_url":null,"decayed_at":null,"tle_current":{"epoch":"2026-09-22T21:36:31.629312Z","epoch_age_seconds":92812,"freshness":"FRESH","line1":"1 61761U 24199AC  26265.90036608  .00048487  00000+0  48648-3 0  9992","line2":"2 61761  97.2715 145.0571 0001647 244.5649 115.5440 15.65371294152853","mean_motion":15.65371294,"eccentricity":0.0001647,"inclination_deg":97.2715,"raan_deg":145.0571,"arg_perigee_deg":244.5649,"mean_anomaly_deg":115.544,"bstar":0.00048648,"rev_number":15285,"period_min":91.990954830937,"perigee_km":371.05935862772,"apogee_km":373.28291012718,"semimajor_km":6750.3081343774,"source":"CELESTRAK","updated_at":"2026-09-23T09:00:21.032567Z"}}}